TimeMDT,TemperatureF,Dew PointF,Humidity,Sea Level PressureIn,VisibilityMPH,Wind Direction,Wind SpeedMPH,Gust SpeedMPH,PrecipitationIn,Events,Conditions,WindDirDegrees,DateUTC
12:15 AM,37.4,33.8,87,29.96,10.0,NNW,9.2,-,N/A,,Mostly Cloudy,340,2013-09-27 06:15:00
12:35 AM,37.4,35.6,93,29.95,10.0,North,10.4,-,N/A,,Overcast,350,2013-09-27 06:35:00
12:55 AM,37.4,35.6,93,29.97,10.0,North,9.2,-,N/A,,Overcast,350,2013-09-27 06:55:00
1:15 AM,37.4,35.6,93,29.96,10.0,NNW,8.1,-,N/A,,Overcast,330,2013-09-27 07:15:00
1:35 AM,37.4,33.8,87,29.96,10.0,North,6.9,-,N/A,,Overcast,350,2013-09-27 07:35:00
1:55 AM,37.4,33.8,87,29.97,10.0,NNW,8.1,-,N/A,,Overcast,340,2013-09-27 07:55:00
2:15 AM,35.6,33.8,93,29.96,10.0,North,9.2,-,N/A,,Overcast,350,2013-09-27 08:15:00
2:35 AM,35.6,33.8,93,29.96,8.0,North,6.9,-,N/A,,Overcast,360,2013-09-27 08:35:00
2:55 AM,35.6,33.8,93,29.95,10.0,North,4.6,-,N/A,,Overcast,10,2013-09-27 08:55:00
3:15 AM,35.6,33.8,93,29.94,10.0,North,6.9,-,N/A,,Overcast,350,2013-09-27 09:15:00
3:35 AM,35.6,33.8,93,29.94,10.0,North,8.1,-,N/A,,Overcast,350,2013-09-27 09:35:00
4:15 AM,35.6,33.8,93,29.94,10.0,North,6.9,-,N/A,,Overcast,360,2013-09-27 10:15:00
4:35 AM,35.6,33.8,93,29.94,10.0,North,6.9,-,N/A,,Overcast,350,2013-09-27 10:35:00
4:55 AM,33.8,32.0,93,29.93,10.0,North,8.1,-,N/A,,Overcast,350,2013-09-27 10:55:00
5:15 AM,35.6,33.8,93,29.93,10.0,NNW,10.4,-,N/A,,Overcast,340,2013-09-27 11:15:00
5:35 AM,35.6,32.0,87,29.94,9.0,NNW,9.2,-,N/A,,Overcast,340,2013-09-27 11:35:00
5:55 AM,35.6,33.8,93,29.94,10.0,NNW,6.9,-,N/A,,Overcast,340,2013-09-27 11:55:00
6:15 AM,35.6,33.8,93,29.95,10.0,NW,4.6,-,N/A,,Overcast,310,2013-09-27 12:15:00
6:35 AM,35.6,33.8,93,29.94,10.0,North,10.4,-,N/A,,Overcast,350,2013-09-27 12:35:00
6:55 AM,35.6,32.0,87,29.95,10.0,North,11.5,-,N/A,,Overcast,350,2013-09-27 12:55:00
7:15 AM,33.8,32.0,93,29.95,10.0,North,9.2,-,N/A,,Overcast,350,2013-09-27 13:15:00
7:35 AM,35.6,33.8,93,29.95,10.0,North,9.2,-,N/A,,Overcast,350,2013-09-27 13:35:00
7:55 AM,35.6,32.0,87,29.95,10.0,NNW,4.6,-,N/A,,Overcast,330,2013-09-27 13:55:00
8:15 AM,35.6,33.8,93,29.95,10.0,NNW,9.2,-,N/A,,Overcast,340,2013-09-27 14:15:00
8:35 AM,35.6,32.0,87,29.96,10.0,NNW,8.1,-,N/A,,Overcast,340,2013-09-27 14:35:00
8:55 AM,35.6,32.0,87,29.96,10.0,NW,6.9,-,N/A,,Overcast,320,2013-09-27 14:55:00
9:15 AM,35.6,32.0,87,29.96,10.0,NW,10.4,-,N/A,,Overcast,320,2013-09-27 15:15:00
9:35 AM,35.6,32.0,87,29.96,10.0,NNW,8.1,-,N/A,,Overcast,340,2013-09-27 15:35:00
9:55 AM,35.6,33.8,93,29.96,10.0,North,6.9,-,N/A,,Overcast,350,2013-09-27 15:55:00
10:15 AM,35.6,32.0,87,29.96,10.0,North,8.1,-,N/A,,Overcast,360,2013-09-27 16:15:00
10:35 AM,35.6,32.0,87,29.96,10.0,North,8.1,-,N/A,,Overcast,350,2013-09-27 16:35:00
10:55 AM,35.6,32.0,87,29.96,9.0,NNW,9.2,-,N/A,,Overcast,340,2013-09-27 16:55:00
11:15 AM,35.6,33.8,93,29.96,6.0,NNW,6.9,-,N/A,,Mostly Cloudy,340,2013-09-27 17:15:00
11:35 AM,35.6,32.0,87,29.97,3.0,North,6.9,-,N/A,,Overcast,360,2013-09-27 17:35:00
11:55 AM,35.6,33.8,93,29.96,5.0,North,6.9,-,N/A,,Overcast,10,2013-09-27 17:55:00
12:15 PM,35.6,33.8,93,29.97,10.0,NNE,4.6,-,N/A,,Overcast,20,2013-09-27 18:15:00
12:35 PM,35.6,33.8,93,29.96,10.0,NE,5.8,-,N/A,,Overcast,40,2013-09-27 18:35:00
12:55 PM,35.6,33.8,93,29.96,10.0,NE,4.6,-,N/A,,Overcast,50,2013-09-27 18:55:00
1:15 PM,35.6,33.8,93,29.96,10.0,East,4.6,-,N/A,,Overcast,90,2013-09-27 19:15:00
1:35 PM,37.4,35.6,93,29.95,10.0,Calm,Calm,-,N/A,,Overcast,0,2013-09-27 19:35:00
1:55 PM,37.4,33.8,87,29.95,10.0,SE,3.5,-,N/A,,Overcast,140,2013-09-27 19:55:00
2:15 PM,39.2,35.6,87,29.95,10.0,Calm,Calm,-,N/A,,Overcast,0,2013-09-27 20:15:00
2:35 PM,39.2,33.8,81,29.94,10.0,ESE,4.6,-,N/A,,Overcast,120,2013-09-27 20:35:00
2:55 PM,39.2,33.8,81,29.94,10.0,Calm,Calm,-,N/A,,Overcast,0,2013-09-27 20:55:00
3:15 PM,41.0,33.8,76,29.94,10.0,ESE,3.5,-,N/A,,Overcast,120,2013-09-27 21:15:00
3:35 PM,41.0,32.0,70,29.95,10.0,East,4.6,-,N/A,,Overcast,80,2013-09-27 21:35:00
3:55 PM,41.0,32.0,70,29.95,10.0,East,4.6,-,N/A,,Overcast,80,2013-09-27 21:55:00
4:15 PM,41.0,32.0,70,29.95,10.0,East,4.6,-,N/A,,Overcast,100,2013-09-27 22:15:00
4:35 PM,41.0,30.2,65,29.95,10.0,ESE,4.6,-,N/A,,Overcast,120,2013-09-27 22:35:00
4:55 PM,42.8,32.0,66,29.95,10.0,SE,5.8,-,N/A,,Overcast,140,2013-09-27 22:55:00
5:15 PM,42.8,32.0,66,29.96,10.0,SE,8.1,-,N/A,,Mostly Cloudy,140,2013-09-27 23:15:00
5:55 PM,42.8,33.8,70,29.96,10.0,SE,6.9,-,N/A,,Mostly Cloudy,140,2013-09-27 23:55:00
6:15 PM,42.8,33.8,70,29.97,10.0,SE,8.1,-,N/A,,Mostly Cloudy,140,2013-09-28 00:15:00
6:35 PM,42.8,33.8,70,29.97,10.0,SE,5.8,-,N/A,,Partly Cloudy,130,2013-09-28 00:35:00
6:55 PM,41.0,33.8,76,29.97,10.0,SE,6.9,-,N/A,,Scattered Clouds,130,2013-09-28 00:55:00
7:15 PM,39.2,32.0,75,29.98,10.0,SSE,9.2,-,N/A,,Partly Cloudy,150,2013-09-28 01:15:00
7:35 PM,39.2,30.2,70,29.98,10.0,SSE,8.1,-,N/A,,Clear,150,2013-09-28 01:35:00
7:55 PM,39.2,32.0,75,29.98,10.0,South,8.1,-,N/A,,Clear,170,2013-09-28 01:55:00
8:15 PM,37.4,33.8,87,29.99,10.0,South,4.6,-,N/A,,Clear,180,2013-09-28 02:15:00
8:35 PM,35.6,32.0,87,29.99,10.0,SSW,4.6,-,N/A,,Clear,210,2013-09-28 02:35:00
8:55 PM,35.6,32.0,87,29.99,10.0,SSE,4.6,-,N/A,,Clear,160,2013-09-28 02:55:00
9:35 PM,35.6,32.0,87,29.99,10.0,SSE,4.6,-,N/A,,Clear,150,2013-09-28 03:35:00
9:55 PM,35.6,32.0,87,29.99,10.0,South,5.8,-,N/A,,Clear,190,2013-09-28 03:55:00
10:15 PM,35.6,30.2,81,29.98,10.0,North,3.5,-,N/A,,Clear,350,2013-09-28 04:15:00
10:35 PM,37.4,30.2,75,29.97,10.0,NW,4.6,-,N/A,,Clear,320,2013-09-28 04:35:00
10:55 PM,39.2,30.2,70,29.97,10.0,West,5.8,-,N/A,,Clear,280,2013-09-28 04:55:00
11:15 PM,37.4,30.2,75,29.97,10.0,WNW,6.9,-,N/A,,Clear,290,2013-09-28 05:15:00
11:35 PM,44.6,28.4,53,29.95,10.0,WSW,11.5,25.3,N/A,,Clear,240,2013-09-28 05:35:00
11:55 PM,44.6,28.4,53,29.95,10.0,West,8.1,18.4,N/A,,Scattered Clouds,270,2013-09-28 05:55:00